Other Public Products
Issued by NWS Charleston, SC

Home | Current Version | Previous Version | Text Only | Print | Product List | Glossary On
Versions: 1 2 3 4 5 6 7 8 9 10 11 12 13 14 15 16 17 18 19 20 21 22 23 24 25 26 27 28 29 30 31 32 33 34 35 36 37 38 39 40 41 42 43 44 45 46 47 48 49 50
348
FPUS82 KCHS 170412
OPUCHS

TEST...KCHS/KSAV Gateway Observations...TEST
National Weather Service Charleston SC
1100 PM EST MON JAN 16 2017

NOTE: "fair" indicates few or no clouds below 12,000 feet with no
significant weather and/or obstructions to visibility.

SCZ050-WAZ558-NCZ071-TXZ119-213-PAZ071-DCZ001-FLZ074-172-MI076-
NYZ176-178-MAZ016-IL014-TNZ027-NJZ106-GAZ044-MD014-170500-
...Gateway Observations for Charleston International...

CITY           SKY/WX    TMP DP  RH WIND       PRES   REMARKS
Chas Airport   MOCLDY    56  52  86 E3        30.30F
Seattle        CLOUDY    45  31  58 SE10      30.00S
Charlotte      CLOUDY    50  46  86 SE3       30.32S
Dallas DFW     CLOUDY    51  42  71 N7        30.05R
Dallas Love    CLOUDY    54  42  64 N7        30.05R
Philladelphia  CLOUDY    38  28  67 W6        30.34F WCI  33
Wash National  LGT RAIN  42  35  76 S7        30.33F
Baltimore      CLOUDY    39  30  70 SE3       30.32F
Miami          PTCLDY    75  60  59 E12       30.22F
Detroit        LGT RAIN  33  30  88 E7        30.14F FOG     WCI  27
Newark         CLOUDY    40  24  53 SW8       30.32S WCI  34
Laguardia      CLOUDY    43  24  47 SW7       30.31F
J F K          CLOUDY    40  27  59 SW8       30.33F WCI  34
Boston Logan   MOCLDY    36  20  52 SW16      30.22F WCI  26
Ft. Lauderdale PTCLDY    74  62  66 SE17      30.21F
Chicago O`Hare CLOUDY    37  36  96 NE6       29.90F FOG     WCI  32
Chicago Midway CLOUDY    37  36  96 E5        29.90F FOG     WCI  33
Houston Bush   CLOUDY    72  68  87 S7        30.01S
Houston Hobby  MOCLDY    71  69  93 SE7       30.01S
Nashville      CLOUDY    61  55  81 S14       30.07F
Atlanta        PTCLDY    59  55  87 E7        30.25S

$$

GAZ044-118-TXZ119-213-NCZ071-DCZ001-MDZ014-506-PAZ021-071-NJZ106-
NYZ176-178-MAZ106-OHZ011-021-055-MIZ076-KYZ091-ILZ014-INZ047-
MNZ060-170500-
...Gateway Observations for Savannah International...

CITY           SKY/WX    TMP DP  RH WIND       PRES   REMARKS
Savannah Arpt  FOG       58  56  93 E8        30.30F VSB 1
Atlanta        PTCLDY    59  55  87 E7        30.25S
Charlotte      CLOUDY    50  46  86 SE3       30.32S
Dallas DFW     CLOUDY    51  42  71 N7        30.05R
Houston Bush   CLOUDY    72  68  87 S7        30.01S
Wash National  LGT RAIN  42  35  76 S7        30.33F
Wash Dulles    LGT RAIN  42  34  73 S6        30.31F
Baltimore      CLOUDY    39  30  70 SE3       30.32F
Philadelphia   CLOUDY    38  28  67 W6        30.34F WCI  33
Newark         CLOUDY    40  24  53 SW8       30.32S WCI  34
Laguardia      CLOUDY    43  24  47 SW7       30.31F
J F K          CLOUDY    40  27  59 SW8       30.33F WCI  34
Boston         MOCLDY    36  20  52 SW16      30.22F WCI  26
Pittsburg      CLOUDY    37  36  96 SE5       30.16F WCI  33
Akron          CLOUDY    39  34  82 SE7       30.13F HAZE    WCI  34
Cleveland      CLOUDY    41  34  76 SE7       30.14F
Cincinnati     CLOUDY    54  52  93 SE9       30.04F
Columbus       LGT RAIN  44  44 100 E5        30.10F
Detroit        LGT RAIN  33  30  88 E7        30.14F FOG     WCI  27
Chicago O`Hare CLOUDY    37  36  96 NE6       29.90F FOG     WCI  32
Minneapolis    FRZ RAIN  31  27  85 N6        29.97F FOG     WCI  25
Indianapolis   LGT RAIN  50  49  96 SE13      29.97F FOG

$$




USA.gov is the U.S. government's official web portal to all federal, state and local government web resources and services.